User: anonymous
Location: Hopkins Observatory
(42.6965°N, 73.1843°W)
Time: 23:38:29
(UTC-04:00)
Language:

UOSAT-12 - Orbit

View from above orbital plane
View from above orbital plane
View from above satellite
View from above satellite

Ground track
Ground track

The orbit data is extracted from the following two-line orbital elements,

1 25693U 99021A   14259.79499340  .00000287  00000-0  56303-4 0  5963
2 25693 064.5580 340.2375 0049695 276.5717 223.5717 14.80033449831473
Epoch (UTC): 16 September 2014 19:04:47
Eccentricity: 0.0049695
inclination: 64.5580°
perigee height: 594 km
apogee height: 664 km
right ascension of ascending node: 340.2375°
argument of perigee: 276.5717°
revolutions per day: 14.80033449
mean anomaly at epoch: 223.5717°
orbit number at epoch: 83147

The dashed part of the orbit path shows where the satellite is in the earth's shadow,  

DLR